Newton, KS

12:24 PM CST on November 21, 2019 (GMT -0600)
Newton City County

Weather History for KEWK - August, 2019

Change the Weather History Date:

Monday, August 26, 2019

  Actual Average Record
Temperature  
Mean Temperature 76 °F -  
Max Temperature 84 °F 86 °F 102 °F (1999)
Min Temperature 68 °F 64 °F 59 °F (2008)
Cooling Degree Days 11    
Growing Degree Days 26 (Base 50)    
Moisture  
Dew Point 70 °F    
Average Humidity 88    
Maximum Humidity 100    
Minimum Humidity 72    
Precipitation  
Precipitation 0.00 in - - ()
Sea Level Pressure  
Sea Level Pressure 29.75 in    
Wind  
Wind Speed 10 mph (SE)    
Max Wind Speed 16 mph    
Max Gust Speed 22 mph    
Visibility 10 miles    
Events      
Averages and records for this station are not official NWS values.
T = Trace of Precipitation, MM = Missing Value Source: NWS Daily Summary

Daily Weather History Graph

Daily Weather History Graph

Search for Another Location

Airport or City:

Astronomy

Aug. 26, 2019 Rise Set
Actual Time 6:53 AM CDT 8:07 PM CDT
Civil Twilight 6:26 AM CDT 8:34 PM CDT
Nautical Twilight 5:53 AM CDT 9:07 PM CDT
Astronomical Twilight 5:19 AM CDT 9:41 PM CDT
Moon 2:23 AM CDT (8/26) 5:28 PM CDT (8/26)
Length of Visible Light 14h 08m
Length of Day
13h 14m
Waning Crescent, 19% of the Moon is Illuminated
Aug 26
Waning Crescent
Aug 30
New
Sep 5
First Quarter
Sep 13
Full
Sep 21
Last Quarter

Hourly Weather History & Observations

Time (CDT) Temp. Heat Index Dew Point Humidity Pressure Visibility Wind Dir Wind Speed Gust Speed Precip Events Conditions
12:56 AM 68.0 °F - 66.9 °F 96% 29.78 in 10.0 mi SE 9.2 mph - N/A   Partly Cloudy
1:56 AM 68.0 °F - 66.9 °F 96% 29.76 in 10.0 mi ESE 6.9 mph - N/A   Mostly Cloudy
2:56 AM 68.0 °F - 66.9 °F 96% 29.74 in 10.0 mi SE 9.2 mph - N/A   Partly Cloudy
3:56 AM 68.0 °F - 66.9 °F 96% 29.74 in 10.0 mi SE 8.1 mph - N/A   Scattered Clouds
4:56 AM 68.0 °F - 66.9 °F 96% 29.72 in 10.0 mi SSE 9.2 mph - N/A   Clear
5:56 AM 68.0 °F - 68.0 °F 100% 29.70 in 10.0 mi SE 11.5 mph - N/A   Clear
6:56 AM 69.1 °F - 68.0 °F 96% 29.67 in 10.0 mi SSE 11.5 mph - N/A   Clear
7:34 AM 69.8 °F - 68.0 °F 94% 29.72 in 10.0 mi SSE 8.1 mph - N/A   Partly Cloudy
7:46 AM 69.8 °F - 69.8 °F 100% 29.72 in 10.0 mi SSE 9.2 mph - N/A   Mostly Cloudy
7:56 AM 70.0 °F - 69.1 °F 97% 29.68 in 10.0 mi SSE 9.2 mph - N/A   Mostly Cloudy
8:31 AM 71.6 °F - 71.6 °F 100% 29.72 in 10.0 mi South 12.7 mph - N/A   Overcast
9:35 AM 75.2 °F - 71.6 °F 89% 29.77 in 10.0 mi WSW 6.9 mph - N/A   Overcast
9:56 AM 75.9 °F - 72.0 °F 87% 29.72 in 10.0 mi SW 10.4 mph - N/A   Overcast
10:56 AM 78.1 °F - 73.0 °F 84% 29.71 in 10.0 mi SSW 13.8 mph - N/A   Mostly Cloudy
11:56 AM 81.0 °F 86.2 °F 73.9 °F 79% 29.71 in 10.0 mi South 9.2 mph - N/A   Mostly Cloudy
12:06 PM 80.6 °F 85.4 °F 73.4 °F 79% 29.75 in 10.0 mi SW 10.4 mph - N/A   Mostly Cloudy
12:56 PM 82.9 °F 89.4 °F 73.9 °F 74% 29.70 in 10.0 mi WSW 6.9 mph - N/A   Overcast
1:56 PM 82.9 °F 89.4 °F 73.9 °F 74% 29.71 in 10.0 mi WNW 6.9 mph - N/A   Overcast
2:56 PM 84.0 °F 91.9 °F 75.0 °F 74% 29.71 in 10.0 mi North 9.2 mph - N/A   Overcast
3:56 PM 82.9 °F 88.8 °F 73.0 °F 72% 29.72 in 10.0 mi NNW 11.5 mph - N/A   Mostly Cloudy
4:56 PM 80.1 °F 84.2 °F 73.0 °F 79% 29.74 in 10.0 mi North 15.0 mph - N/A   Overcast
5:32 PM 78.8 °F - 73.4 °F 83% 29.80 in 10.0 mi North 12.7 mph - N/A   Overcast
5:41 PM 78.8 °F - 73.4 °F 83% 29.80 in 10.0 mi North 12.7 mph - N/A   Overcast
5:48 PM 78.8 °F - 71.6 °F 78% 29.80 in 10.0 mi NNE 16.1 mph - N/A   Overcast
6:56 PM 75.0 °F - 70.0 °F 84% 29.81 in 10.0 mi North 12.7 mph 21.9 mph N/A   Overcast
7:56 PM 73.0 °F - 69.1 °F 87% 29.83 in 10.0 mi North 10.4 mph - N/A   Overcast
9:56 PM 69.1 °F - 68.0 °F 96% 29.87 in 10.0 mi North 8.1 mph - N/A   Clear
10:56 PM 69.1 °F - 68.0 °F 96% 29.88 in 10.0 mi North 11.5 mph - N/A   Clear
11:56 PM 69.1 °F - 66.9 °F 93% 29.90 in 10.0 mi North 10.4 mph - N/A   Clear